M I D A S
Marine Information and Data Acquisition System
Tripno 1603 of the Zeeleeuw from 2008-09-08 06:17:00 to 2008-09-08 12:45:18
Back to CruiseResearch ActivitiesStationsMapUnderway DataData graphs

EquipmentUnitsComments
TimeDGPSUTC
LatitudeDGPSDM.mWGS84
LongitudeDGPSDM.mWGS84
SpeedMeteo Stationm/sRelative wind speed
DirectionMeteo StationdegRelative wind direction
TemperatureMeteo Stationdeg CelciusAir temperature
PressureMeteo StationPaAtmospheric pressure
HumidityMeteo Station%Relative humidity
Missing or incorrect values are displayed as -999
Metereological data collected by the RV Zeeleeuw from 2008-09-08 06:17:33 to 2008-09-08 12:58:44
                                                                                    Next 1000 lines
Time Latitude Longitude Speed Direction Temperature Pressure Humidity
2008-09-08 06:17:43 51°13.623 2°56.048 -999 -999 -999 -999 -999
2008-09-08 06:17:48 51°13.623 2°56.048 -999 -999 -999 -999 -999
2008-09-08 06:17:53 51°13.623 2°56.048 -999 -999 -999 -999 -999
2008-09-08 06:17:58 51°13.623 2°56.048 -999 -999 -999 -999 -999
2008-09-08 06:18:03 51°13.623 2°56.048 -999 -999 -999 -999 -999
2008-09-08 06:18:08 51°13.623 2°56.048 -999 -999 -999 -999 -999
2008-09-08 06:18:13 51°13.623 2°56.048 -999 -999 -999 -999 -999
2008-09-08 06:18:18 51°13.623 2°56.048 -999 -999 -999 -999 -999
2008-09-08 06:18:23 51°13.623 2°56.048 -999 -999 -999 -999 -999
2008-09-08 06:18:28 51°13.622 2°56.048 -999 -999 -999 -999 -999
2008-09-08 06:18:33 51°13.622 2°56.048 -999 -999 -999 -999 -999
2008-09-08 06:18:38 51°13.622 2°56.048 -999 -999 -999 -999 -999
2008-09-08 06:18:43 51°13.622 2°56.048 -999 -999 -999 -999 -999
2008-09-08 06:18:48 51°13.622 2°56.047 -999 -999 -999 -999 -999
2008-09-08 06:18:53 51°13.622 2°56.046 -999 -999 -999 -999 -999
2008-09-08 06:18:58 51°13.623 2°56.045 -999 -999 -999 -999 -999
2008-09-08 06:19:03 51°13.623 2°56.043 -999 -999 -999 -999 -999
2008-09-08 06:19:08 51°13.624 2°56.041 -999 -999 -999 -999 -999
2008-09-08 06:19:13 51°13.625 2°56.038 -999 -999 -999 -999 -999
2008-09-08 06:19:18 51°13.626 2°56.035 -999 -999 -999 -999 -999
2008-09-08 06:19:23 51°13.627 2°56.031 -999 -999 -999 -999 -999
2008-09-08 06:19:28 51°13.628 2°56.026 -999 -999 -999 -999 -999
2008-09-08 06:19:33 51°13.629 2°56.022 -999 -999 -999 -999 -999
2008-09-08 06:19:38 51°13.631 2°56.016 -999 -999 -999 -999 -999
2008-09-08 06:19:43 51°13.632 2°56.011 -999 -999 -999 -999 -999
2008-09-08 06:19:48 51°13.633 2°56.005 -999 -999 -999 -999 -999
2008-09-08 06:19:53 51°13.635 2°55.999 -999 -999 -999 -999 -999
2008-09-08 06:19:58 51°13.636 2°55.992 -999 -999 -999 -999 -999
2008-09-08 06:20:03 51°13.638 2°55.986 -999 -999 -999 -999 -999
2008-09-08 06:20:08 51°13.639 2°55.978 -999 -999 -999 -999 -999
2008-09-08 06:20:13 51°13.641 2°55.971 -999 -999 -999 -999 -999
2008-09-08 06:20:18 51°13.643 2°55.963 -999 -999 -999 -999 -999
2008-09-08 06:20:23 51°13.645 2°55.955 -999 -999 -999 -999 -999
2008-09-08 06:20:28 51°13.647 2°55.946 -999 -999 -999 -999 -999
2008-09-08 06:20:33 51°13.65 2°55.937 -999 -999 -999 -999 -999
2008-09-08 06:20:38 51°13.653 2°55.928 -999 -999 -999 -999 -999
2008-09-08 06:20:43 51°13.655 2°55.919 -999 -999 -999 -999 -999
2008-09-08 06:20:48 51°13.659 2°55.91 -999 -999 -999 -999 -999
2008-09-08 06:20:53 51°13.662 2°55.901 -999 -999 -999 -999 -999
2008-09-08 06:20:58 51°13.665 2°55.892 -999 -999 -999 -999 -999
2008-09-08 06:21:03 51°13.669 2°55.883 -999 -999 -999 -999 -999
2008-09-08 06:21:08 51°13.673 2°55.874 -999 -999 -999 -999 -999
2008-09-08 06:21:13 51°13.677 2°55.865 -999 -999 -999 -999 -999
2008-09-08 06:21:18 51°13.681 2°55.855 -999 -999 -999 -999 -999
2008-09-08 06:21:23 51°13.685 2°55.846 -999 -999 -999 -999 -999
2008-09-08 06:21:28 51°13.689 2°55.837 -999 -999 -999 -999 -999
2008-09-08 06:21:33 51°13.694 2°55.828 -999 -999 -999 -999 -999
2008-09-08 06:21:38 51°13.698 2°55.819 -999 -999 -999 -999 -999
2008-09-08 06:21:43 51°13.703 2°55.809 -999 -999 -999 -999 -999
2008-09-08 06:21:48 51°13.707 2°55.8 -999 -999 -999 -999 -999
2008-09-08 06:21:53 51°13.712 2°55.792 -999 -999 -999 -999 -999
2008-09-08 06:21:58 51°13.717 2°55.783 -999 -999 -999 -999 -999
2008-09-08 06:22:03 51°13.722 2°55.774 -999 -999 -999 -999 -999
2008-09-08 06:22:08 51°13.727 2°55.766 -999 -999 -999 -999 -999
2008-09-08 06:22:13 51°13.732 2°55.757 -999 -999 -999 -999 -999
2008-09-08 06:22:18 51°13.737 2°55.749 -999 -999 -999 -999 -999
2008-09-08 06:22:23 51°13.742 2°55.741 -999 -999 -999 -999 -999
2008-09-08 06:22:28 51°13.748 2°55.734 -999 -999 -999 -999 -999
2008-09-08 06:22:33 51°13.754 2°55.726 -999 -999 -999 -999 -999
2008-09-08 06:22:38 51°13.76 2°55.719 -999 -999 -999 -999 -999
2008-09-08 06:22:43 51°13.766 2°55.711 -999 -999 -999 -999 -999
2008-09-08 06:22:48 51°13.772 2°55.704 -999 -999 -999 -999 -999
2008-09-08 06:22:53 51°13.778 2°55.697 -999 -999 -999 -999 -999
2008-09-08 06:22:58 51°13.784 2°55.69 -999 -999 -999 -999 -999
2008-09-08 06:23:03 51°13.79 2°55.683 -999 -999 -999 -999 -999
2008-09-08 06:23:08 51°13.797 2°55.677 -999 -999 -999 -999 -999
2008-09-08 06:23:13 51°13.803 2°55.67 -999 -999 -999 -999 -999
2008-09-08 06:23:18 51°13.81 2°55.664 -999 -999 -999 -999 -999
2008-09-08 06:23:23 51°13.817 2°55.659 -999 -999 -999 -999 -999
2008-09-08 06:23:28 51°13.824 2°55.653 -999 -999 -999 -999 -999
2008-09-08 06:23:33 51°13.83 2°55.649 -999 -999 -999 -999 -999
2008-09-08 06:23:38 51°13.837 2°55.645 -999 -999 -999 -999 -999
2008-09-08 06:23:43 51°13.843 2°55.642 -999 -999 -999 -999 -999
2008-09-08 06:23:48 51°13.849 2°55.639 -999 -999 -999 -999 -999
2008-09-08 06:23:53 51°13.856 2°55.637 -999 -999 -999 -999 -999
2008-09-08 06:23:58 51°13.861 2°55.635 -999 -999 -999 -999 -999
2008-09-08 06:24:03 51°13.867 2°55.634 -999 -999 -999 -999 -999
2008-09-08 06:24:08 51°13.872 2°55.632 -999 -999 -999 -999 -999
2008-09-08 06:24:13 51°13.877 2°55.632 -999 -999 -999 -999 -999
2008-09-08 06:24:18 51°13.882 2°55.631 -999 -999 -999 -999 -999
2008-09-08 06:24:23 51°13.887 2°55.631 -999 -999 -999 -999 -999
2008-09-08 06:24:28 51°13.891 2°55.631 -999 -999 -999 -999 -999
2008-09-08 06:24:33 51°13.895 2°55.632 -999 -999 -999 -999 -999
2008-09-08 06:24:38 51°13.899 2°55.632 -999 -999 -999 -999 -999
2008-09-08 06:24:43 51°13.903 2°55.633 -999 -999 -999 -999 -999
2008-09-08 06:24:48 51°13.906 2°55.634 -999 -999 -999 -999 -999
2008-09-08 06:24:53 51°13.91 2°55.635 -999 -999 -999 -999 -999
2008-09-08 06:24:58 51°13.913 2°55.637 -999 -999 -999 -999 -999
2008-09-08 06:25:03 51°13.916 2°55.638 -999 -999 -999 -999 -999
2008-09-08 06:25:08 51°13.919 2°55.639 -999 -999 -999 -999 -999
2008-09-08 06:25:13 51°13.922 2°55.641 -999 -999 -999 -999 -999
2008-09-08 06:25:18 51°13.925 2°55.643 -999 -999 -999 -999 -999
2008-09-08 06:25:23 51°13.928 2°55.644 -999 -999 -999 -999 -999
2008-09-08 06:25:28 51°13.93 2°55.646 -999 -999 -999 -999 -999
2008-09-08 06:25:33 51°13.933 2°55.648 -999 -999 -999 -999 -999
2008-09-08 06:25:38 51°13.935 2°55.65 -999 -999 -999 -999 -999
2008-09-08 06:25:43 51°13.937 2°55.651 -999 -999 -999 -999 -999
2008-09-08 06:25:48 51°13.939 2°55.653 -999 -999 -999 -999 -999
2008-09-08 06:25:53 51°13.941 2°55.655 -999 17 -999 -999 -999
2008-09-08 06:25:58 51°13.943 2°55.657 5.2 3 -999 -999 -999
2008-09-08 06:26:03 51°13.945 2°55.659 3.3 317 -999 -999 -999
2008-09-08 06:26:08 51°13.947 2°55.661 3.1 15 -999 -999 -999
2008-09-08 06:26:13 51°13.949 2°55.663 4.2 303 -999 -999 -999
2008-09-08 06:26:18 51°13.95 2°55.665 3.5 319 14.1 -999 83
2008-09-08 06:26:23 51°13.952 2°55.667 2.7 302 14.1 -999 83
2008-09-08 06:26:27 51°13.953 2°55.668 2.7 20 14.2 -999 97
2008-09-08 06:26:32 51°13.955 2°55.67 3.8 309 14.2 -999 97
2008-09-08 06:26:38 51°13.957 2°55.672 3.8 28 14.2 101290 99
2008-09-08 06:26:42 51°13.958 2°55.674 2.8 301 14.2 101290 99
2008-09-08 06:26:47 51°13.959 2°55.676 3.4 21 14.2 101290 99
2008-09-08 06:26:52 51°13.96 2°55.678 3.3 303 14.2 101290 99
2008-09-08 06:26:57 51°13.962 2°55.68 2.4 27 14.2 101290 100
2008-09-08 06:27:02 51°13.963 2°55.682 3.1 309 14.2 101290 100
2008-09-08 06:27:07 51°13.964 2°55.683 3.9 21 14.2 101290 100
2008-09-08 06:27:12 51°13.965 2°55.685 6.5 305 14.2 101290 100
2008-09-08 06:27:16 51°13.965 2°55.687 6 22 14.3 101290 100
2008-09-08 06:27:22 51°13.966 2°55.689 6.3 303 14.3 101290 100
2008-09-08 06:27:26 51°13.967 2°55.69 6.2 27 14.3 101290 100
2008-09-08 06:27:31 51°13.968 2°55.692 4.5 302 14.3 101290 100
2008-09-08 06:27:36 51°13.968 2°55.694 3.9 255 14.3 101290 100
2008-09-08 06:27:41 51°13.969 2°55.696 5.1 301 14.3 101290 100
2008-09-08 06:27:46 51°13.97 2°55.697 3.8 25 14.2 101280 100
2008-09-08 06:27:51 51°13.97 2°55.698 4.1 302 14.2 101280 100
2008-09-08 06:27:56 51°13.971 2°55.699 3.8 20 14.3 101280 100
2008-09-08 06:28:01 51°13.971 2°55.7 4.1 303 14.3 101280 100
2008-09-08 06:28:06 51°13.971 2°55.701 4.2 262 14.2 101290 100
2008-09-08 06:28:11 51°13.971 2°55.701 6.1 305 14.2 101290 100
2008-09-08 06:28:15 51°13.972 2°55.701 4.5 24 14.3 101290 100
2008-09-08 06:28:20 51°13.972 2°55.701 4 306 14.3 101290 100
2008-09-08 06:28:25 51°13.973 2°55.701 3.5 255 14.3 101290 100
2008-09-08 06:28:30 51°13.973 2°55.701 3.4 308 14.3 101290 100
2008-09-08 06:28:35 51°13.974 2°55.7 4.5 260 14.3 101290 100
2008-09-08 06:28:40 51°13.974 2°55.7 4.9 308 14.3 101290 100
2008-09-08 06:28:45 51°13.975 2°55.699 4.5 256 14.3 101290 100
2008-09-08 06:28:50 51°13.976 2°55.699 5 303 14.3 101290 100
2008-09-08 06:28:54 51°13.976 2°55.699 4.6 253 14.3 101290 100
2008-09-08 06:29:00 51°13.977 2°55.698 6 306 14.3 101290 100
2008-09-08 06:29:05 51°13.977 2°55.698 5.1 258 14.3 101290 100
2008-09-08 06:29:10 51°13.978 2°55.698 4.7 301 14.3 101290 100
2008-09-08 06:29:14 51°13.978 2°55.698 4.7 262 14.3 101290 100
2008-09-08 06:29:19 51°13.978 2°55.698 3.1 302 14.3 101290 100
2008-09-08 06:29:24 51°13.979 2°55.698 2.6 263 14.3 101290 100
2008-09-08 06:29:30 51°13.979 2°55.697 2.5 303 14.3 101290 100
2008-09-08 06:29:34 51°13.98 2°55.697 2.7 33 14.3 101290 100
2008-09-08 06:29:39 51°13.98 2°55.697 2.2 312 14.3 101290 100
2008-09-08 06:29:44 51°13.981 2°55.695 3.1 30 14.3 101290 100
2008-09-08 06:29:50 51°13.983 2°55.694 3.2 62 14.3 101290 100
2008-09-08 06:29:54 51°13.983 2°55.692 3.1 266 14.3 101290 100
2008-09-08 06:29:59 51°13.985 2°55.689 3.1 301 14.3 101290 100
2008-09-08 06:30:04 51°13.988 2°55.685 3.8 256 14.3 101290 -999
2008-09-08 06:30:10 51°13.991 2°55.678 3.4 303 14.3 101290 -999
2008-09-08 06:30:14 51°13.994 2°55.672 4.9 259 14.3 101290 -999
2008-09-08 06:30:19 51°13.998 2°55.664 4.1 301 14.3 101290 -999
2008-09-08 06:30:24 51°14.003 2°55.656 4.7 256 14.3 101290 -999
2008-09-08 06:30:29 51°14.008 2°55.645 4.3 307 14.3 101290 -999
2008-09-08 06:30:34 51°14.014 2°55.634 5.1 27 14.3 101290 -999
2008-09-08 06:30:39 51°14.02 2°55.623 3.9 303 14.3 101290 -999
2008-09-08 06:30:44 51°14.027 2°55.61 4.9 28 14.3 101300 -999
2008-09-08 06:30:50 51°14.035 2°55.594 7.3 307 14.3 101300 -999
2008-09-08 06:30:54 51°14.041 2°55.583 4.4 23 14.3 101300 -999
2008-09-08 06:30:59 51°14.048 2°55.569 6.1 307 14.3 101300 -999
2008-09-08 06:31:04 51°14.056 2°55.554 5.9 22 14.3 101290 -999
2008-09-08 06:31:09 51°14.063 2°55.539 5.5 309 14.3 101290 -999
2008-09-08 06:31:14 51°14.071 2°55.523 4.6 21 14.3 101290 -999
2008-09-08 06:31:19 51°14.079 2°55.508 3.8 308 14.3 101290 -999
2008-09-08 06:31:24 51°14.087 2°55.493 5.3 23 14.3 101300 -999
2008-09-08 06:31:30 51°14.098 2°55.475 5.4 307 14.3 101300 -999
2008-09-08 06:31:34 51°14.105 2°55.463 3.9 29 14.3 101290 -999
2008-09-08 06:31:39 51°14.114 2°55.448 4.7 306 14.3 101290 -999
2008-09-08 06:31:44 51°14.123 2°55.433 4.2 26 14.3 101300 -999
2008-09-08 06:31:50 51°14.134 2°55.416 4.3 303 14.3 101300 -999
2008-09-08 06:31:54 51°14.142 2°55.405 3.9 248 14.3 101290 -999
2008-09-08 06:31:59 51°14.153 2°55.392 3.2 309 14.3 101290 -999
2008-09-08 06:32:04 51°14.163 2°55.38 4.2 26 14.3 101290 -999
2008-09-08 06:32:10 51°14.176 2°55.365 3.3 308 14.3 101290 -999
2008-09-08 06:32:14 51°14.184 2°55.355 3.8 319 14.3 101290 -999
2008-09-08 06:32:19 51°14.195 2°55.343 3.8 307 14.3 101290 -999
2008-09-08 06:32:24 51°14.206 2°55.331 3.7 27 14.3 101290 -999
2008-09-08 06:32:30 51°14.219 2°55.316 4.3 304 14.3 101290 -999
2008-09-08 06:32:34 51°14.227 2°55.306 5.8 316 14.3 101290 -999
2008-09-08 06:32:39 51°14.237 2°55.292 7.6 306 14.3 101290 -999
2008-09-08 06:32:44 51°14.247 2°55.279 6.1 20 14.4 101290 -999
2008-09-08 06:32:49 51°14.257 2°55.265 7.1 306 14.4 101290 -999
2008-09-08 06:32:54 51°14.267 2°55.251 6.5 28 14.4 101290 -999
2008-09-08 06:32:59 51°14.277 2°55.236 7.1 309 14.4 101290 -999
2008-09-08 06:33:04 51°14.286 2°55.221 6.2 20 14.3 101290 -999
2008-09-08 06:33:10 51°14.296 2°55.202 7.3 307 14.3 101290 -999
2008-09-08 06:33:14 51°14.303 2°55.189 8.3 25 14.3 101290 -999
2008-09-08 06:33:19 51°14.312 2°55.173 8.2 306 14.3 101290 -999
2008-09-08 06:33:24 51°14.32 2°55.156 6.8 21 14.3 101290 -999
2008-09-08 06:33:29 51°14.328 2°55.14 7.1 307 14.3 101290 -999
2008-09-08 06:33:34 51°14.336 2°55.123 7.1 248 14.4 101290 -999
2008-09-08 06:33:39 51°14.343 2°55.106 6.3 301 14.4 101290 -999
2008-09-08 06:33:44 51°14.351 2°55.088 6.5 25 14.4 101290 -999
2008-09-08 06:33:50 51°14.359 2°55.067 9.7 309 14.4 101290 -999
2008-09-08 06:33:54 51°14.365 2°55.053 9.5 20 14.4 101300 -999
2008-09-08 06:33:59 51°14.371 2°55.035 10 303 14.4 101300 -999
2008-09-08 06:34:04 51°14.378 2°55.017 9.5 24 14.4 101290 -999
2008-09-08 06:34:10 51°14.386 2°54.996 10.4 307 14.4 101290 -999
2008-09-08 06:34:14 51°14.392 2°54.982 8.2 28 14.4 101290 -999
2008-09-08 06:34:19 51°14.399 2°54.965 8.3 303 14.4 101290 -999
2008-09-08 06:34:24 51°14.406 2°54.949 7.7 23 14.4 101290 -999
2008-09-08 06:34:30 51°14.414 2°54.931 6.6 302 14.4 101290 -999
2008-09-08 06:34:34 51°14.419 2°54.92 7.4 25 14.4 101290 -999
2008-09-08 06:34:39 51°14.426 2°54.906 6.6 304 14.4 101290 -999
2008-09-08 06:34:45 51°14.433 2°54.89 6.3 21 14.4 101290 -999
2008-09-08 06:34:50 51°14.439 2°54.878 6.1 304 14.4 101290 -999
2008-09-08 06:34:54 51°14.444 2°54.867 6.4 248 14.4 101280 -999
2008-09-08 06:34:59 51°14.45 2°54.855 7.4 307 14.4 101280 -999
2008-09-08 06:35:04 51°14.455 2°54.843 8.3 247 14.4 101290 -999
2008-09-08 06:35:10 51°14.462 2°54.829 10.4 302 14.4 101290 -999
2008-09-08 06:35:14 51°14.467 2°54.82 9.1 252 14.4 101280 -999
2008-09-08 06:35:19 51°14.473 2°54.809 8 301 14.4 101280 -999
2008-09-08 06:35:24 51°14.478 2°54.798 8.1 249 14.4 101290 -999
2008-09-08 06:35:29 51°14.484 2°54.787 7.3 304 14.4 101290 -999
2008-09-08 06:35:34 51°14.489 2°54.777 6.9 25 14.4 101290 -999
2008-09-08 06:35:39 51°14.495 2°54.767 7.6 307 14.4 101290 -999
2008-09-08 06:35:44 51°14.501 2°54.756 9.2 22 14.4 101290 -999
2008-09-08 06:35:50 51°14.508 2°54.744 7 303 14.4 101290 -999
2008-09-08 06:35:54 51°14.512 2°54.736 8.1 248 14.4 101290 -999
2008-09-08 06:35:59 51°14.518 2°54.726 7 307 14.4 101290 -999
2008-09-08 06:36:04 51°14.523 2°54.717 7.3 250 14.5 101290 -999
2008-09-08 06:36:10 51°14.529 2°54.705 8 307 14.5 101290 -999
2008-09-08 06:36:14 51°14.533 2°54.696 6.7 248 14.5 101290 -999
2008-09-08 06:36:19 51°14.538 2°54.686 6.7 306 14.5 101290 -999
2008-09-08 06:36:24 51°14.543 2°54.676 7.7 253 14.5 101300 -999
2008-09-08 06:36:30 51°14.548 2°54.663 8.9 306 14.5 101300 -999
2008-09-08 06:36:34 51°14.552 2°54.655 6.4 19 14.5 101300 -999
2008-09-08 06:36:39 51°14.556 2°54.645 7.8 304 14.5 101300 -999
2008-09-08 06:36:44 51°14.56 2°54.634 8.4 248 14.6 101280 -999
2008-09-08 06:36:50 51°14.565 2°54.621 7.6 301 14.6 101280 -999
2008-09-08 06:36:54 51°14.569 2°54.612 7.3 247 14.6 101290 -999
2008-09-08 06:36:59 51°14.573 2°54.602 6.6 309 14.6 101290 -999
2008-09-08 06:37:04 51°14.577 2°54.591 8.4 19 14.6 101290 -999
2008-09-08 06:37:10 51°14.583 2°54.578 8.3 303 14.6 101290 -999
2008-09-08 06:37:14 51°14.586 2°54.57 9.1 21 14.6 101290 -999
2008-09-08 06:37:19 51°14.591 2°54.559 10 303 14.6 101290 -999
2008-09-08 06:37:24 51°14.595 2°54.549 7.8 26 14.6 101290 -999
2008-09-08 06:37:30 51°14.601 2°54.536 9.5 304 14.6 101290 -999
2008-09-08 06:37:34 51°14.605 2°54.528 9 20 14.6 101280 -999
2008-09-08 06:37:39 51°14.609 2°54.517 10.2 307 14.6 101280 -999
2008-09-08 06:37:44 51°14.614 2°54.506 9.9 246 14.6 101280 -999
2008-09-08 06:37:49 51°14.618 2°54.496 9 304 14.6 101280 -999
2008-09-08 06:37:54 51°14.623 2°54.485 7.7 249 14.6 101280 -999
2008-09-08 06:37:59 51°14.627 2°54.474 8.4 303 14.6 101280 -999
2008-09-08 06:38:04 51°14.632 2°54.464 9.3 23 14.6 101280 -999
2008-09-08 06:38:10 51°14.637 2°54.451 8.9 306 14.6 101280 -999
2008-09-08 06:38:14 51°14.64 2°54.442 9.1 247 14.6 101280 -999
2008-09-08 06:38:19 51°14.645 2°54.432 7.6 302 14.6 101280 -999
2008-09-08 06:38:24 51°14.649 2°54.421 7.9 25 14.6 101270 -999
2008-09-08 06:38:30 51°14.654 2°54.408 9.3 302 14.6 101270 -999
2008-09-08 06:38:34 51°14.657 2°54.399 8.3 21 14.6 101290 -999
2008-09-08 06:38:39 51°14.661 2°54.388 9.2 304 14.6 101290 -999
2008-09-08 06:38:44 51°14.664 2°54.378 8 244 14.6 101280 -999
2008-09-08 06:38:50 51°14.668 2°54.364 9.5 303 14.6 101280 -999
2008-09-08 06:38:54 51°14.67 2°54.355 8.7 27 14.7 101290 -999
2008-09-08 06:38:59 51°14.672 2°54.344 8.3 302 14.7 101290 -999
2008-09-08 06:39:04 51°14.674 2°54.333 8.1 29 14.7 101280 -999
2008-09-08 06:39:10 51°14.676 2°54.32 7.2 304 14.7 101280 -999
2008-09-08 06:39:14 51°14.678 2°54.311 7.4 22 14.7 101280 -999
2008-09-08 06:39:19 51°14.679 2°54.299 8.5 309 14.7 101280 -999
2008-09-08 06:39:24 51°14.681 2°54.288 8.4 21 14.7 101280 -999
2008-09-08 06:39:30 51°14.682 2°54.274 10.6 300 14.7 101280 -999
2008-09-08 06:39:34 51°14.683 2°54.265 8.5 29 14.7 101280 -999
2008-09-08 06:39:39 51°14.684 2°54.254 8.4 301 14.7 101280 -999
2008-09-08 06:39:44 51°14.685 2°54.242 9.5 27 14.7 101280 -999
2008-09-08 06:39:49 51°14.686 2°54.231 9.8 303 14.7 101280 -999
2008-09-08 06:39:54 51°14.687 2°54.219 10.8 25 14.7 101280 -999
2008-09-08 06:39:59 51°14.688 2°54.207 10.6 304 14.7 101280 -999
2008-09-08 06:40:04 51°14.689 2°54.195 8.2 27 14.7 101280 -999
2008-09-08 06:40:09 51°14.69 2°54.184 9.9 308 14.7 101280 -999
2008-09-08 06:40:14 51°14.691 2°54.172 8.2 26 14.7 101280 -999
2008-09-08 06:40:19 51°14.692 2°54.16 9.3 301 14.7 101280 -999
2008-09-08 06:40:24 51°14.693 2°54.149 7.9 27 14.7 101280 -999
2008-09-08 06:40:30 51°14.695 2°54.134 10.2 306 14.7 101280 -999
2008-09-08 06:40:34 51°14.696 2°54.125 8.8 24 14.7 101280 -999
2008-09-08 06:40:39 51°14.697 2°54.113 8.5 307 14.7 101280 -999
2008-09-08 06:40:44 51°14.698 2°54.101 8.4 28 14.7 101270 -999
2008-09-08 06:40:50 51°14.7 2°54.087 9.4 307 14.7 101270 -999
2008-09-08 06:40:54 51°14.701 2°54.078 10.6 26 14.8 101280 -999
2008-09-08 06:40:59 51°14.702 2°54.066 10.3 302 14.8 101280 -999
2008-09-08 06:41:04 51°14.703 2°54.054 11.1 22 14.7 101280 -999
2008-09-08 06:41:10 51°14.704 2°54.04 10.4 305 14.7 101280 -999
2008-09-08 06:41:14 51°14.705 2°54.031 8.2 19 14.7 101280 -999
2008-09-08 06:41:19 51°14.706 2°54.019 9.3 303 14.7 101280 -999
2008-09-08 06:41:24 51°14.708 2°54.007 10.8 28 14.7 101290 -999
2008-09-08 06:41:30 51°14.709 2°53.993 8.1 305 14.7 101290 -999
2008-09-08 06:41:34 51°14.71 2°53.983 10.8 25 14.7 101270 -999
2008-09-08 06:41:39 51°14.711 2°53.971 9.7 305 14.7 101270 -999
2008-09-08 06:41:44 51°14.712 2°53.96 8.2 27 14.7 101280 -999
2008-09-08 06:41:50 51°14.713 2°53.945 10.4 307 14.7 101280 -999
2008-09-08 06:41:54 51°14.714 2°53.936 10 25 14.7 101280 -999
2008-09-08 06:41:59 51°14.715 2°53.924 8.9 303 14.7 101280 -999
2008-09-08 06:42:04 51°14.715 2°53.912 11 26 14.7 101270 -999
2008-09-08 06:42:09 51°14.716 2°53.9 11 306 14.7 101270 -999
2008-09-08 06:42:14 51°14.717 2°53.889 10.7 21 14.7 101280 -999
2008-09-08 06:42:19 51°14.718 2°53.877 8.5 301 14.7 101280 -999
2008-09-08 06:42:24 51°14.719 2°53.865 9.6 24 14.7 101270 -999
2008-09-08 06:42:29 51°14.72 2°53.853 9.1 303 14.7 101270 -999
2008-09-08 06:42:34 51°14.721 2°53.841 10.1 22 14.7 101270 -999
2008-09-08 06:42:39 51°14.721 2°53.829 8.9 309 14.7 101270 -999
2008-09-08 06:42:44 51°14.722 2°53.817 8.2 25 14.7 101270 -999
2008-09-08 06:42:50 51°14.722 2°53.802 8.5 309 14.7 101270 -999
2008-09-08 06:42:54 51°14.722 2°53.793 8.5 19 14.7 101280 -999
2008-09-08 06:42:59 51°14.723 2°53.781 7.9 304 14.7 101280 -999
2008-09-08 06:43:04 51°14.724 2°53.769 8.4 24 14.7 101280 -999
2008-09-08 06:43:10 51°14.724 2°53.754 10.7 305 14.7 101280 -999
2008-09-08 06:43:14 51°14.725 2°53.745 9.4 23 14.7 101280 100
2008-09-08 06:43:19 51°14.726 2°53.733 9.7 303 14.7 101280 100
2008-09-08 06:43:24 51°14.726 2°53.721 8.8 25 14.7 101270 100
2008-09-08 06:43:30 51°14.727 2°53.706 8.5 303 14.7 101270 100
2008-09-08 06:43:34 51°14.727 2°53.697 9.3 21 14.7 101290 99
2008-09-08 06:43:39 51°14.728 2°53.685 9.9 306 14.7 101290 99
2008-09-08 06:43:44 51°14.729 2°53.672 8.7 26 14.7 101290 99
2008-09-08 06:43:50 51°14.729 2°53.658 9.4 302 14.7 101290 99
2008-09-08 06:43:54 51°14.729 2°53.648 10.3 24 14.7 101280 98
2008-09-08 06:43:59 51°14.73 2°53.636 10.5 303 14.7 101280 98
2008-09-08 06:44:04 51°14.73 2°53.624 10.5 28 14.7 101280 98
2008-09-08 06:44:10 51°14.731 2°53.609 8.9 306 14.7 101280 98
2008-09-08 06:44:14 51°14.731 2°53.6 9.3 24 14.7 101280 98
2008-09-08 06:44:19 51°14.731 2°53.587 9.7 307 14.7 101280 98
2008-09-08 06:44:24 51°14.731 2°53.575 9.1 25 14.7 101280 98
2008-09-08 06:44:29 51°14.732 2°53.563 9.6 308 14.7 101280 98
2008-09-08 06:44:34 51°14.732 2°53.551 8 20 14.7 101280 98
2008-09-08 06:44:39 51°14.732 2°53.539 8.2 301 14.7 101280 98
2008-09-08 06:44:44 51°14.732 2°53.527 10.1 23 14.7 101270 98
2008-09-08 06:44:50 51°14.732 2°53.513 8.4 307 14.7 101270 98
2008-09-08 06:44:54 51°14.733 2°53.503 8.4 27 14.7 101280 98
2008-09-08 06:44:59 51°14.733 2°53.491 9.5 307 14.7 101280 98
2008-09-08 06:45:04 51°14.733 2°53.479 8.3 21 14.7 101280 98
2008-09-08 06:45:10 51°14.733 2°53.464 8.5 302 14.7 101280 98
2008-09-08 06:45:14 51°14.734 2°53.454 8.5 22 14.8 101280 98
2008-09-08 06:45:19 51°14.734 2°53.442 9.8 310 14.8 101280 98
2008-09-08 06:45:24 51°14.734 2°53.43 10 20 14.8 101270 98
2008-09-08 06:45:30 51°14.735 2°53.415 8.1 300 14.8 101270 98
2008-09-08 06:45:34 51°14.735 2°53.405 7.6 28 14.8 101280 98
2008-09-08 06:45:39 51°14.735 2°53.393 8.8 304 14.8 101280 98
2008-09-08 06:45:44 51°14.736 2°53.381 9.2 24 14.8 101280 98
2008-09-08 06:45:50 51°14.736 2°53.367 9.3 303 14.8 101280 98
2008-09-08 06:45:54 51°14.736 2°53.357 9.7 23 14.8 101280 98
2008-09-08 06:45:59 51°14.736 2°53.345 8 307 14.8 101280 98
2008-09-08 06:46:04 51°14.737 2°53.332 7.8 22 14.8 101280 98
2008-09-08 06:46:10 51°14.737 2°53.318 9.7 309 14.8 101280 98
2008-09-08 06:46:14 51°14.738 2°53.308 7.4 20 14.8 101280 98
2008-09-08 06:46:19 51°14.738 2°53.295 7.7 303 14.8 101280 98
2008-09-08 06:46:24 51°14.739 2°53.283 9.1 27 14.8 101280 98
2008-09-08 06:46:29 51°14.739 2°53.271 8.8 300 14.8 101280 98
2008-09-08 06:46:34 51°14.74 2°53.259 8.6 28 14.8 101290 98
2008-09-08 06:46:39 51°14.74 2°53.246 9.9 305 14.8 101290 98
2008-09-08 06:46:44 51°14.741 2°53.234 9.1 27 14.8 101280 98
2008-09-08 06:46:50 51°14.741 2°53.218 8.4 306 14.8 101280 98
2008-09-08 06:46:54 51°14.742 2°53.208 9.6 26 14.8 101280 98
2008-09-08 06:46:59 51°14.742 2°53.196 11.4 309 14.8 101280 98
2008-09-08 06:47:04 51°14.743 2°53.184 7.8 27 14.8 101290 98
2008-09-08 06:47:09 51°14.743 2°53.172 8 305 14.8 101290 98
2008-09-08 06:47:14 51°14.744 2°53.16 7.9 28 14.8 101270 98
2008-09-08 06:47:19 51°14.744 2°53.148 8.1 304 14.8 101270 98
2008-09-08 06:47:24 51°14.745 2°53.135 7.8 25 14.8 101290 98
2008-09-08 06:47:30 51°14.745 2°53.12 8.7 306 14.8 101290 98
2008-09-08 06:47:34 51°14.746 2°53.11 7.4 28 14.8 101280 98
2008-09-08 06:47:39 51°14.746 2°53.098 8.9 303 14.8 101280 98
2008-09-08 06:47:44 51°14.747 2°53.086 7.9 23 14.8 101280 98
2008-09-08 06:47:50 51°14.747 2°53.071 8.6 303 14.8 101280 98
2008-09-08 06:47:54 51°14.747 2°53.062 10.1 27 14.8 101280 98
2008-09-08 06:47:59 51°14.748 2°53.049 9.1 305 14.8 101280 98
2008-09-08 06:48:04 51°14.748 2°53.038 10.4 26 14.8 101280 98
2008-09-08 06:48:10 51°14.749 2°53.023 9.5 309 14.8 101280 98
2008-09-08 06:48:14 51°14.749 2°53.014 9.9 23 14.8 101280 98
2008-09-08 06:48:19 51°14.749 2°53.002 10.9 305 14.8 101280 98
2008-09-08 06:48:24 51°14.749 2°52.99 10.6 23 14.9 101270 98
2008-09-08 06:48:30 51°14.749 2°52.976 8.4 302 14.9 101270 98
2008-09-08 06:48:34 51°14.749 2°52.966 9.8 21 14.9 101270 98
2008-09-08 06:48:39 51°14.748 2°52.955 8.7 303 14.9 101270 98
2008-09-08 06:48:44 51°14.748 2°52.943 8.7 21 14.8 101280 98
2008-09-08 06:48:50 51°14.746 2°52.93 9.5 307 14.8 101280 98
2008-09-08 06:48:54 51°14.746 2°52.92 9.3 25 14.8 101270 98
2008-09-08 06:48:59 51°14.744 2°52.909 9.3 306 14.8 101270 98
2008-09-08 06:49:04 51°14.743 2°52.898 9.4 29 14.8 101290 98
2008-09-08 06:49:09 51°14.742 2°52.887 8.8 301 14.8 101290 98
2008-09-08 06:49:14 51°14.74 2°52.875 8.5 29 14.8 101280 98
2008-09-08 06:49:19 51°14.739 2°52.864 10.5 305 14.8 101280 98
2008-09-08 06:49:24 51°14.737 2°52.853 9 25 14.9 101280 98
2008-09-08 06:49:30 51°14.735 2°52.839 10.8 302 14.9 101280 98
2008-09-08 06:49:34 51°14.734 2°52.83 10.2 316 14.9 101280 98
2008-09-08 06:49:39 51°14.732 2°52.819 9.4 303 14.9 101280 98
2008-09-08 06:49:44 51°14.73 2°52.808 9.8 21 14.9 101280 98
2008-09-08 06:49:50 51°14.728 2°52.794 9.9 308 14.9 101280 98
2008-09-08 06:49:54 51°14.727 2°52.785 9.3 26 14.9 101270 98
2008-09-08 06:49:59 51°14.725 2°52.774 10.4 304 14.9 101270 98
2008-09-08 06:50:04 51°14.723 2°52.763 10.9 25 14.9 101270 98
2008-09-08 06:50:10 51°14.721 2°52.749 10.7 301 14.9 101270 98
2008-09-08 06:50:14 51°14.719 2°52.74 10.2 29 14.9 101270 98
2008-09-08 06:50:19 51°14.717 2°52.729 10.1 307 14.9 101270 98
2008-09-08 06:50:24 51°14.715 2°52.718 10.1 315 14.9 101270 98
2008-09-08 06:50:30 51°14.713 2°52.704 8.7 301 14.9 101270 98
2008-09-08 06:50:34 51°14.712 2°52.695 8.8 29 14.9 101260 98
2008-09-08 06:50:39 51°14.71 2°52.684 8.5 303 14.9 101260 98
2008-09-08 06:50:44 51°14.709 2°52.673 8.9 26 14.9 101280 98
2008-09-08 06:50:50 51°14.707 2°52.659 10 308 14.9 101280 98
2008-09-08 06:50:54 51°14.706 2°52.65 10.8 21 14.9 101260 97
2008-09-08 06:50:59 51°14.704 2°52.639 11.2 302 14.9 101260 97
2008-09-08 06:51:04 51°14.703 2°52.628 11.9 24 14.9 101270 98
2008-09-08 06:51:09 51°14.701 2°52.616 11.5 308 14.9 101270 98
2008-09-08 06:51:14 51°14.7 2°52.605 11.4 20 14.9 101280 97
2008-09-08 06:51:19 51°14.698 2°52.593 9.3 303 14.9 101280 97
2008-09-08 06:51:24 51°14.696 2°52.582 9.1 26 14.9 101270 98
2008-09-08 06:51:30 51°14.694 2°52.568 10.3 309 14.9 101270 98
2008-09-08 06:51:34 51°14.693 2°52.559 10.4 20 14.9 101270 97
2008-09-08 06:51:39 51°14.692 2°52.548 9.7 302 14.9 101270 97
2008-09-08 06:51:44 51°14.69 2°52.536 10.4 27 14.9 101270 97
2008-09-08 06:51:50 51°14.688 2°52.523 9.6 308 14.9 101270 97
2008-09-08 06:51:54 51°14.687 2°52.514 10.4 317 14.9 101270 97
2008-09-08 06:51:59 51°14.685 2°52.502 10.8 306 14.9 101270 97
2008-09-08 06:52:04 51°14.684 2°52.491 11.7 24 14.9 101270 97
2008-09-08 06:52:10 51°14.682 2°52.478 11.1 305 14.9 101270 97
2008-09-08 06:52:14 51°14.68 2°52.469 9.9 28 14.9 101270 98
2008-09-08 06:52:19 51°14.679 2°52.458 10.8 306 14.9 101270 98
2008-09-08 06:52:24 51°14.677 2°52.446 12.1 28 14.9 101260 97
2008-09-08 06:52:30 51°14.675 2°52.433 10.4 305 14.9 101260 97
2008-09-08 06:52:34 51°14.673 2°52.424 11.9 26 14.9 101260 97
2008-09-08 06:52:39 51°14.672 2°52.413 10.5 304 14.9 101260 97
2008-09-08 06:52:44 51°14.67 2°52.402 11.3 26 14.9 101270 97
2008-09-08 06:52:50 51°14.667 2°52.389 11.7 309 14.9 101270 97
2008-09-08 06:52:54 51°14.666 2°52.38 10.1 318 14.9 101270 97
2008-09-08 06:52:59 51°14.664 2°52.369 9.9 307 14.9 101270 97
2008-09-08 06:53:04 51°14.661 2°52.358 11.5 26 14.9 101270 97
2008-09-08 06:53:10 51°14.659 2°52.345 12.5 307 14.9 101270 97
2008-09-08 06:53:14 51°14.657 2°52.336 10.3 21 15 101270 97
2008-09-08 06:53:19 51°14.656 2°52.325 10.2 305 15 101270 97
2008-09-08 06:53:24 51°14.653 2°52.315 11.3 316 15 101260 97
2008-09-08 06:53:30 51°14.651 2°52.302 11.6 305 15 101260 97
2008-09-08 06:53:34 51°14.649 2°52.293 12.1 25 15 101270 97
2008-09-08 06:53:39 51°14.647 2°52.282 12.2 307 15 101270 97
2008-09-08 06:53:44 51°14.645 2°52.271 12.1 317 15 101270 97
2008-09-08 06:53:50 51°14.642 2°52.258 10.8 301 15 101270 97
2008-09-08 06:53:54 51°14.641 2°52.249 10 316 15 101270 97
2008-09-08 06:53:59 51°14.639 2°52.238 11.8 303 15 101270 97
2008-09-08 06:54:04 51°14.637 2°52.227 10.1 25 15 101260 97
2008-09-08 06:54:09 51°14.635 2°52.216 11.4 306 15 101260 97
2008-09-08 06:54:14 51°14.633 2°52.205 9.7 24 14.9 101260 96
2008-09-08 06:54:19 51°14.631 2°52.194 11.8 306 14.9 101260 96
2008-09-08 06:54:24 51°14.629 2°52.183 11.2 317 14.9 101260 96
2008-09-08 06:54:30 51°14.627 2°52.17 13.1 303 14.9 101260 96
2008-09-08 06:54:34 51°14.625 2°52.161 10.1 25 15 101270 96
2008-09-08 06:54:39 51°14.622 2°52.151 11.9 305 15 101270 96
2008-09-08 06:54:44 51°14.62 2°52.14 10.1 316 15 101260 97
2008-09-08 06:54:50 51°14.618 2°52.127 11.8 303 15 101260 97
2008-09-08 06:54:54 51°14.616 2°52.119 10.3 317 15 101270 96
2008-09-08 06:54:59 51°14.614 2°52.108 10.8 306 15 101270 96
2008-09-08 06:55:04 51°14.612 2°52.097 11.2 21 15 101260 96
2008-09-08 06:55:10 51°14.609 2°52.084 12.9 308 15 101260 96
2008-09-08 06:55:14 51°14.608 2°52.075 13.1 24 15 101270 97
2008-09-08 06:55:19 51°14.605 2°52.065 12.4 307 15 101270 97
2008-09-08 06:55:24 51°14.604 2°52.053 11.1 317 15 101250 96
2008-09-08 06:55:30 51°14.601 2°52.041 12 304 15 101250 96
2008-09-08 06:55:34 51°14.599 2°52.032 11.8 317 15 101270 96
2008-09-08 06:55:39 51°14.597 2°52.021 11.6 308 15 101270 96
2008-09-08 06:55:44 51°14.595 2°52.01 10.3 24 15 101270 96
2008-09-08 06:55:50 51°14.593 2°51.996 12.2 308 15 101270 96
2008-09-08 06:55:54 51°14.592 2°51.987 13.1 315 15 101270 97
2008-09-08 06:55:59 51°14.589 2°51.976 12.2 305 15 101270 97
2008-09-08 06:56:04 51°14.588 2°51.966 12.8 316 15.1 101270 97
2008-09-08 06:56:09 51°14.585 2°51.954 10.6 302 15.1 101270 97
2008-09-08 06:56:14 51°14.583 2°51.943 12.4 24 15.1 101270 97
2008-09-08 06:56:19 51°14.581 2°51.933 11.9 307 15.1 101270 97
2008-09-08 06:56:24 51°14.579 2°51.921 12.5 26 15 101270 97
2008-09-08 06:56:30 51°14.577 2°51.908 10.8 306 15 101270 97
2008-09-08 06:56:34 51°14.575 2°51.899 13.3 26 15 101260 97
2008-09-08 06:56:40 51°14.573 2°51.886 10.5 305 15 101260 97
2008-09-08 06:56:44 51°14.571 2°51.877 11 25 15.1 101270 96
2008-09-08 06:56:50 51°14.569 2°51.864 11.1 304 15.1 101270 96
2008-09-08 06:56:54 51°14.567 2°51.855 10.9 26 15.1 101270 97
2008-09-08 06:56:59 51°14.565 2°51.843 11.8 304 15.1 101270 97
2008-09-08 06:57:04 51°14.564 2°51.832 10.7 28 15.1 101270 97
2008-09-08 06:57:10 51°14.561 2°51.819 10.6 305 15.1 101270 97
2008-09-08 06:57:14 51°14.56 2°51.81 10.1 25 15.1 101270 96
2008-09-08 06:57:19 51°14.558 2°51.799 11.7 307 15.1 101270 96
2008-09-08 06:57:24 51°14.556 2°51.788 10.6 25 15 101270 96
2008-09-08 06:57:30 51°14.553 2°51.775 10.4 304 15 101270 96
2008-09-08 06:57:34 51°14.552 2°51.766 11.7 25 15 101260 96
2008-09-08 06:57:39 51°14.55 2°51.755 10.9 302 15 101260 96
2008-09-08 06:57:44 51°14.548 2°51.744 10.3 27 15.1 101260 96
2008-09-08 06:57:50 51°14.545 2°51.731 12.9 304 15.1 101260 96
2008-09-08 06:57:54 51°14.544 2°51.722 11.2 26 15.1 101280 96
2008-09-08 06:57:59 51°14.542 2°51.711 11.3 305 15.1 101280 96
2008-09-08 06:58:04 51°14.541 2°51.7 11.2 27 15.1 101270 96
2008-09-08 06:58:09 51°14.539 2°51.689 11.1 303 15.1 101270 96
2008-09-08 06:58:14 51°14.537 2°51.677 12.9 22 15.1 101280 96
2008-09-08 06:58:19 51°14.535 2°51.666 11.6 304 15.1 101280 96
2008-09-08 06:58:24 51°14.533 2°51.655 10.9 29 15.1 101260 96
2008-09-08 06:58:30 51°14.532 2°51.641 10.9 307 15.1 101260 96
2008-09-08 06:58:34 51°14.53 2°51.633 10.9 316 15.1 101260 96
2008-09-08 06:58:39 51°14.528 2°51.621 11.1 305 15.1 101260 96
2008-09-08 06:58:44 51°14.526 2°51.61 12.1 22 15.1 101280 96
2008-09-08 06:58:50 51°14.524 2°51.597 11 307 15.1 101280 96
2008-09-08 06:58:54 51°14.521 2°51.589 10.8 316 15.1 101270 96
2008-09-08 06:58:59 51°14.519 2°51.578 10.3 302 15.1 101270 96
2008-09-08 06:59:04 51°14.517 2°51.568 9.7 317 15.1 101270 96
2008-09-08 06:59:10 51°14.514 2°51.555 12 302 15.1 101270 96
2008-09-08 06:59:14 51°14.512 2°51.546 10.3 29 15.1 101280 96
2008-09-08 06:59:19 51°14.51 2°51.535 12.1 308 15.1 101280 96
2008-09-08 06:59:24 51°14.507 2°51.525 10.7 318 15 101280 96
2008-09-08 06:59:30 51°14.504 2°51.511 10.6 302 15 101280 96
2008-09-08 06:59:34 51°14.502 2°51.503 9.9 318 15 101270 96
2008-09-08 06:59:39 51°14.5 2°51.492 10.2 302 15 101270 96
2008-09-08 06:59:44 51°14.497 2°51.481 9.5 316 15.1 101280 96
2008-09-08 06:59:50 51°14.495 2°51.468 9.8 305 15.1 101280 96
2008-09-08 06:59:54 51°14.493 2°51.459 10 317 15.1 101270 96
2008-09-08 06:59:59 51°14.49 2°51.448 10.9 302 15.1 101270 96
2008-09-08 07:00:04 51°14.488 2°51.438 9.5 29 15.1 101270 96
2008-09-08 07:00:10 51°14.485 2°51.424 10.4 302 15.1 101270 96
2008-09-08 07:00:14 51°14.483 2°51.416 9.2 317 15.1 101270 96
2008-09-08 07:00:19 51°14.481 2°51.405 10.8 307 15.1 101270 96
2008-09-08 07:00:24 51°14.479 2°51.394 10 318 15.1 101280 96
2008-09-08 07:00:30 51°14.476 2°51.381 10.3 305 15.1 101280 96
2008-09-08 07:00:34 51°14.474 2°51.372 12.5 316 15.1 101280 96
2008-09-08 07:00:39 51°14.471 2°51.362 11.7 301 15.1 101280 96
2008-09-08 07:00:44 51°14.469 2°51.351 11.5 318 15.1 101280 96
2008-09-08 07:00:50 51°14.466 2°51.339 10.5 302 15.1 101280 96
2008-09-08 07:00:54 51°14.464 2°51.33 11.7 316 15.1 101280 96
2008-09-08 07:00:59 51°14.461 2°51.319 10.3 305 15.1 101280 96
2008-09-08 07:01:04 51°14.459 2°51.309 12.6 315 15.1 101280 96
2008-09-08 07:01:10 51°14.456 2°51.296 10.5 305 15.1 101280 96
2008-09-08 07:01:14 51°14.454 2°51.287 11.3 317 15.1 101270 96
2008-09-08 07:01:19 51°14.452 2°51.277 12.3 307 15.1 101270 96
2008-09-08 07:01:24 51°14.449 2°51.266 10.5 26 15.1 101280 96
2008-09-08 07:01:30 51°14.446 2°51.253 11.4 308 15.1 101280 96
2008-09-08 07:01:34 51°14.445 2°51.244 12.1 316 15.1 101270 95
2008-09-08 07:01:39 51°14.442 2°51.234 11.9 301 15.1 101270 95
2008-09-08 07:01:44 51°14.44 2°51.223 11.8 22 15.1 101270 95
2008-09-08 07:01:50 51°14.437 2°51.21 11.6 301 15.1 101270 95
2008-09-08 07:01:54 51°14.435 2°51.202 12 315 15 101270 96
2008-09-08 07:01:59 51°14.433 2°51.191 12.1 300 15 101270 96
2008-09-08 07:02:04 51°14.43 2°51.181 11.8 22 15 101270 95
2008-09-08 07:02:10 51°14.427 2°51.168 9.9 302 15 101270 95
2008-09-08 07:02:14 51°14.425 2°51.159 9.6 25 15 101270 95
2008-09-08 07:02:19 51°14.423 2°51.148 10.7 307 15 101270 95
2008-09-08 07:02:24 51°14.421 2°51.137 9.7 24 15 101280 95
2008-09-08 07:02:30 51°14.418 2°51.124 10.2 305 15 101280 95
2008-09-08 07:02:34 51°14.416 2°51.116 9.7 316 15.1 101270 95
2008-09-08 07:02:39 51°14.413 2°51.105 10.7 306 15.1 101270 95
2008-09-08 07:02:44 51°14.411 2°51.094 12.2 21 15.1 101280 96
2008-09-08 07:02:49 51°14.408 2°51.083 10.2 308 15.1 101280 96
2008-09-08 07:02:54 51°14.406 2°51.071 10.6 318 15.1 101280 96
2008-09-08 07:02:59 51°14.404 2°51.06 10.8 282 15.1 101280 96
2008-09-08 07:03:04 51°14.402 2°51.049 9.9 316 15.1 101280 96
2008-09-08 07:03:10 51°14.399 2°51.036 12.9 301 15.1 101280 96
2008-09-08 07:03:14 51°14.397 2°51.027 11.4 315 15.1 101270 96
2008-09-08 07:03:19 51°14.395 2°51.016 10.7 302 15.1 101270 96
2008-09-08 07:03:24 51°14.392 2°51.005 11 316 15.1 101280 96
2008-09-08 07:03:30 51°14.39 2°50.992 12.1 301 15.1 101280 96
2008-09-08 07:03:34 51°14.387 2°50.983 11 319 15 101280 96
2008-09-08 07:03:39 51°14.385 2°50.973 9.7 304 15 101280 96
2008-09-08 07:03:44 51°14.382 2°50.962 9.5 320 15 101270 96
2008-09-08 07:03:50 51°14.379 2°50.949 10.2 302 15 101270 96
2008-09-08 07:03:54 51°14.377 2°50.941 10.3 318 15 101280 95
2008-09-08 07:03:59 51°14.374 2°50.93 10 303 15 101280 95
2008-09-08 07:04:04 51°14.372 2°50.92 11.4 322 15.1 101280 96
2008-09-08 07:04:10 51°14.368 2°50.907 11.2 303 15.1 101280 96
2008-09-08 07:04:14 51°14.366 2°50.899 11.9 320 15.1 101280 96
2008-09-08 07:04:19 51°14.363 2°50.888 11 302 15.1 101280 96
2008-09-08 07:04:24 51°14.36 2°50.878 11.8 319 15.1 101290 96
2008-09-08 07:04:30 51°14.357 2°50.865 12.3 302 15.1 101290 96
2008-09-08 07:04:34 51°14.354 2°50.857 12 321 15.1 101280 96
2008-09-08 07:04:39 51°14.352 2°50.846 9.9 306 15.1 101280 96
2008-09-08 07:04:44 51°14.349 2°50.836 11.4 317 15 101280 96
2008-09-08 07:04:50 51°14.345 2°50.823 10.6 305 15 101280 96
2008-09-08 07:04:54 51°14.343 2°50.815 10.3 25 15.1 101290 96
2008-09-08 07:04:59 51°14.34 2°50.805 11.4 282 15.1 101290 96
2008-09-08 07:05:04 51°14.337 2°50.794 11 318 15.1 101290 96
2008-09-08 07:05:10 51°14.334 2°50.782 11.8 306 15.1 101290 96
2008-09-08 07:05:14 51°14.332 2°50.774 10.8 319 15.1 101280 96
2008-09-08 07:05:19 51°14.329 2°50.763 11.4 303 15.1 101280 96
2008-09-08 07:05:24 51°14.326 2°50.753 9.9 317 15.1 101280 96
2008-09-08 07:05:30 51°14.323 2°50.74 11.8 305 15.1 101280 96
2008-09-08 07:05:34 51°14.321 2°50.732 10.5 317 15 101280 96
2008-09-08 07:05:39 51°14.318 2°50.722 10.4 302 15 101280 96
2008-09-08 07:05:44 51°14.315 2°50.712 10 318 15 101280 95
2008-09-08 07:05:50 51°14.312 2°50.699 11.5 305 15 101280 95
2008-09-08 07:05:54 51°14.31 2°50.691 11.4 316 15 101280 95
2008-09-08 07:05:59 51°14.307 2°50.68 9.7 302 15 101280 95
2008-09-08 07:06:04 51°14.304 2°50.67 10.5 320 15 101290 96
2008-09-08 07:06:10 51°14.301 2°50.657 10.4 303 15 101290 96
2008-09-08 07:06:14 51°14.299 2°50.649 10 24 15 101280 96
2008-09-08 07:06:19 51°14.296 2°50.638 9.8 305 15 101280 96
2008-09-08 07:06:24 51°14.294 2°50.627 9.7 316 15 101290 96
2008-09-08 07:06:30 51°14.291 2°50.614 11.2 308 15 101290 96
2008-09-08 07:06:34 51°14.288 2°50.606 10.8 317 15 101280 96
2008-09-08 07:06:39 51°14.286 2°50.595 9.8 302 15 101280 96
2008-09-08 07:06:44 51°14.283 2°50.584 9.5 316 15 101290 96
2008-09-08 07:06:50 51°14.28 2°50.571 10.4 304 15 101290 96
2008-09-08 07:06:54 51°14.278 2°50.563 10.4 318 15 101290 96
2008-09-08 07:06:59 51°14.275 2°50.552 9.8 301 15 101290 96
2008-09-08 07:07:04 51°14.272 2°50.541 10 317 15.1 101290 96
2008-09-08 07:07:10 51°14.269 2°50.529 10.4 307 15.1 101290 96
2008-09-08 07:07:14 51°14.267 2°50.52 9.5 319 15.1 101290 96
2008-09-08 07:07:19 51°14.264 2°50.509 10.6 302 15.1 101290 96
2008-09-08 07:07:24 51°14.261 2°50.498 10 318 15 101280 96
2008-09-08 07:07:30 51°14.258 2°50.485 10.8 305 15 101280 96
2008-09-08 07:07:34 51°14.256 2°50.477 11 320 15 101290 96
2008-09-08 07:07:39 51°14.253 2°50.466 11.8 304 15 101290 96
2008-09-08 07:07:44 51°14.25 2°50.456 12 317 15 101290 96
2008-09-08 07:07:49 51°14.247 2°50.445 11.1 305 15 101290 96
2008-09-08 07:07:54 51°14.244 2°50.435 12.4 319 15 101290 96
2008-09-08 07:07:59 51°14.242 2°50.424 9.9 325 15 101290 96
2008-09-08 07:08:04 51°14.239 2°50.413 10.6 319 15 101290 96
2008-09-08 07:08:10 51°14.236 2°50.4 9.8 309 15 101290 96
2008-09-08 07:08:14 51°14.233 2°50.392 10.7 323 15 101280 95
2008-09-08 07:08:19 51°14.23 2°50.381 10.3 301 15 101280 95
2008-09-08 07:08:24 51°14.227 2°50.371 9.6 318 15 101290 96
2008-09-08 07:08:30 51°14.224 2°50.358 10.2 303 15 101290 96
2008-09-08 07:08:34 51°14.221 2°50.349 10.1 320 15 101300 96
2008-09-08 07:08:39 51°14.218 2°50.339 10 305 15 101300 96
2008-09-08 07:08:44 51°14.216 2°50.328 9.3 318 15 101290 96
2008-09-08 07:08:50 51°14.212 2°50.315 10 306 15 101290 96
2008-09-08 07:08:54 51°14.21 2°50.307 9.9 319 15 101290 96
2008-09-08 07:08:59 51°14.207 2°50.295 9.6 279 15 101290 96
2008-09-08 07:09:05 51°14.204 2°50.283 10.8 318 15.1 101290 96
2008-09-08 07:09:10 51°14.201 2°50.273 10.3 308 15.1 101290 96
2008-09-08 07:09:14 51°14.199 2°50.265 10.3 319 15 101300 96
2008-09-08 07:09:19 51°14.196 2°50.254 11.2 303 15 101300 96
2008-09-08 07:09:24 51°14.193 2°50.244 9.7 318 15 101290 96
2008-09-08 07:09:30 51°14.19 2°50.231 11.3 310 15 101290 96
2008-09-08 07:09:34 51°14.188 2°50.223 9.8 318 15 101290 96
2008-09-08 07:09:39 51°14.185 2°50.213 10.7 302 15 101290 96
2008-09-08 07:09:44 51°14.182 2°50.202 10.9 319 15 101290 95
2008-09-08 07:09:49 51°14.179 2°50.192 9.3 301 15 101290 95
2008-09-08 07:09:54 51°14.177 2°50.181 10.1 317 15 101300 96
2008-09-08 07:09:59 51°14.174 2°50.171 10.6 303 15 101300 96
2008-09-08 07:10:04 51°14.171 2°50.16 10.6 317 15 101280 96
2008-09-08 07:10:10 51°14.168 2°50.148 10 306 15 101280 96
2008-09-08 07:10:14 51°14.165 2°50.139 10.6 318 15.1 101300 96
2008-09-08 07:10:20 51°14.162 2°50.127 11.5 309 15.1 101300 96
2008-09-08 07:10:24 51°14.16 2°50.118 10.2 317 15.1 101290 96
2008-09-08 07:10:30 51°14.156 2°50.106 11.2 306 15.1 101290 96
2008-09-08 07:10:34 51°14.154 2°50.097 11.6 319 15.1 101300 96
2008-09-08 07:10:39 51°14.151 2°50.087 11.2 306 15.1 101300 96
2008-09-08 07:10:44 51°14.148 2°50.076 12.1 320 15 101290 96
2008-09-08 07:10:50 51°14.145 2°50.063 10.4 302 15 101290 96
2008-09-08 07:10:54 51°14.142 2°50.055 9.5 318 15 101290 96
2008-09-08 07:10:59 51°14.14 2°50.045 9.1 305 15 101290 96
2008-09-08 07:11:05 51°14.136 2°50.032 10.9 316 15 101290 95
2008-09-08 07:11:10 51°14.133 2°50.021 11.1 308 15 101290 95
2008-09-08 07:11:14 51°14.131 2°50.013 10.6 20 15 101290 95
2008-09-08 07:11:19 51°14.128 2°50.002 12 303 15 101290 95
2008-09-08 07:11:24 51°14.125 2°49.992 10.7 318 15 101290 95
2008-09-08 07:11:30 51°14.122 2°49.979 12.1 302 15 101290 95
2008-09-08 07:11:34 51°14.12 2°49.971 10.6 319 15 101290 96
2008-09-08 07:11:39 51°14.117 2°49.96 9.9 303 15 101290 96
2008-09-08 07:11:44 51°14.114 2°49.949 10.9 319 15 101300 96
2008-09-08 07:11:50 51°14.111 2°49.937 12 307 15 101300 96
2008-09-08 07:11:54 51°14.109 2°49.928 10.6 318 15 101290 95
2008-09-08 07:11:59 51°14.106 2°49.918 9.5 306 15 101290 95
2008-09-08 07:12:04 51°14.103 2°49.907 9.6 319 15 101290 95
2008-09-08 07:12:10 51°14.1 2°49.894 11.3 305 15 101290 95
2008-09-08 07:12:14 51°14.097 2°49.886 10.5 317 15 101290 95
2008-09-08 07:12:19 51°14.095 2°49.875 9.7 306 15 101290 95
2008-09-08 07:12:24 51°14.092 2°49.865 11.4 318 15 101300 95
2008-09-08 07:12:30 51°14.088 2°49.852 10.3 303 15 101300 95
2008-09-08 07:12:34 51°14.086 2°49.843 11.4 317 15 101300 95
2008-09-08 07:12:39 51°14.083 2°49.832 11.2 306 15 101300 95
2008-09-08 07:12:44 51°14.08 2°49.822 9.2 318 15 101300 96
2008-09-08 07:12:50 51°14.077 2°49.809 9.4 305 15 101300 96
2008-09-08 07:12:54 51°14.075 2°49.801 12.2 318 15 101290 96
2008-09-08 07:12:59 51°14.071 2°49.79 11.8 306 15 101290 96
2008-09-08 07:13:05 51°14.069 2°49.778 10.8 318 15 101300 96
2008-09-08 07:13:10 51°14.065 2°49.767 11.6 300 15 101300 96
2008-09-08 07:13:14 51°14.064 2°49.759 10.5 28 15 101300 96
2008-09-08 07:13:19 51°14.061 2°49.748 12.4 308 15 101300 96
2008-09-08 07:13:24 51°14.058 2°49.738 12.9 317 15 101280 96
2008-09-08 07:13:30 51°14.055 2°49.725 11.9 304 15 101280 96
2008-09-08 07:13:34 51°14.053 2°49.716 11.3 316 15 101300 96
2008-09-08 07:13:39 51°14.05 2°49.706 10.8 308 15 101300 96
2008-09-08 07:13:44 51°14.047 2°49.695 11.8 322 15 101300 96
2008-09-08 07:13:50 51°14.044 2°49.683 10.3 305 15 101300 96
2008-09-08 07:13:54 51°14.042 2°49.674 12 320 15 101290 96
2008-09-08 07:13:59 51°14.039 2°49.664 11.8 307 15 101290 96
2008-09-08 07:14:04 51°14.037 2°49.654 11.3 319 15 101300 96
2008-09-08 07:14:10 51°14.033 2°49.641 9.9 302 15 101300 96
2008-09-08 07:14:14 51°14.031 2°49.633 9.9 317 15 101290 96
2008-09-08 07:14:19 51°14.028 2°49.622 11.1 308 15 101290 96
2008-09-08 07:14:24 51°14.026 2°49.611 11 319 15 101290 95
2008-09-08 07:14:30 51°14.022 2°49.599 10.5 303 15 101290 95
2008-09-08 07:14:34 51°14.02 2°49.59 9.3 319 15 101290 95
2008-09-08 07:14:39 51°14.017 2°49.579 10.3 302 15 101290 95
2008-09-08 07:14:44 51°14.015 2°49.569 11.1 319 15 101300 96
2008-09-08 07:14:50 51°14.012 2°49.556 11.3 301 15 101300 96
2008-09-08 07:14:54 51°14.009 2°49.547 9.7 319 15 101290 96
2008-09-08 07:14:59 51°14.007 2°49.536 10.1 276 15 101290 96
2008-09-08 07:15:05 51°14.003 2°49.523 9.7 318 15 101300 96
2008-09-08 07:15:10 51°14.001 2°49.513 9.8 303 15 101300 96
2008-09-08 07:15:14 51°13.998 2°49.505 9.9 317 15 101300 96
2008-09-08 07:15:19 51°13.995 2°49.494 10.9 307 15 101300 96
2008-09-08 07:15:24 51°13.993 2°49.483 9.4 27 15 101300 96
2008-09-08 07:15:30 51°13.989 2°49.47 10.1 305 15 101300 96
2008-09-08 07:15:34 51°13.987 2°49.462 10.4 26 14.9 101300 95
2008-09-08 07:15:39 51°13.985 2°49.452 11.6 309 14.9 101300 95
2008-09-08 07:15:45 51°13.981 2°49.439 10.4 26 14.9 101300 95
2008-09-08 07:15:50 51°13.979 2°49.428 11.3 302 14.9 101300 95
2008-09-08 07:15:54 51°13.976 2°49.42 10.2 317 15 101300 95
2008-09-08 07:15:59 51°13.974 2°49.409 10.4 305 15 101300 95
2008-09-08 07:16:04 51°13.971 2°49.399 11.2 315 14.9 101290 95
2008-09-08 07:16:10 51°13.967 2°49.386 11.5 304 14.9 101290 95
2008-09-08 07:16:14 51°13.965 2°49.378 11.8 316 14.9 101290 95
2008-09-08 07:16:19 51°13.962 2°49.368 10.4 302 14.9 101290 95
2008-09-08 07:16:24 51°13.959 2°49.358 11.8 317 14.9 101290 95
2008-09-08 07:16:30 51°13.955 2°49.345 11.2 301 14.9 101290 95
2008-09-08 07:16:34 51°13.953 2°49.337 11.9 26 14.9 101290 95
2008-09-08 07:16:39 51°13.949 2°49.326 11.5 306 14.9 101290 95
2008-09-08 07:16:44 51°13.946 2°49.316 10 317 14.9 101300 95
2008-09-08 07:16:50 51°13.942 2°49.304 9.9 307 14.9 101300 95
2008-09-08 07:16:54 51°13.94 2°49.295 9.4 318 14.9 101290 95
2008-09-08 07:16:59 51°13.937 2°49.285 10 303 14.9 101290 95
2008-09-08 07:17:04 51°13.934 2°49.275 11.4 320 14.9 101300 95
2008-09-08 07:17:10 51°13.929 2°49.262 10.9 308 14.9 101300 95
2008-09-08 07:17:14 51°13.927 2°49.254 10.9 322 14.9 101300 96
2008-09-08 07:17:20 51°13.923 2°49.241 11.1 302 14.9 101300 96
2008-09-08 07:17:24 51°13.92 2°49.233 9.9 320 14.9 101300 96
2008-09-08 07:17:30 51°13.916 2°49.221 9.9 304 14.9 101300 96
2008-09-08 07:17:34 51°13.913 2°49.213 10.7 317 14.9 101300 95
2008-09-08 07:17:39 51°13.909 2°49.203 10.1 303 14.9 101300 95
2008-09-08 07:17:45 51°13.905 2°49.191 11.9 318 14.9 101300 96
2008-09-08 07:17:50 51°13.902 2°49.181 10.1 303 14.9 101300 96
2008-09-08 07:17:54 51°13.899 2°49.173 10.3 319 14.9 101300 96
2008-09-08 07:17:59 51°13.895 2°49.163 11.5 307 14.9 101300 96
2008-09-08 07:18:04 51°13.893 2°49.153 11.4 316 14.9 101300 96
2008-09-08 07:18:10 51°13.888 2°49.141 10.2 304 14.9 101300 96
2008-09-08 07:18:14 51°13.886 2°49.132 11.3 316 14.9 101300 95
2008-09-08 07:18:19 51°13.883 2°49.122 10.5 302 14.9 101300 95
2008-09-08 07:18:24 51°13.879 2°49.111 9.6 315 14.8 101300 95
2008-09-08 07:18:29 51°13.876 2°49.102 10.1 301 14.8 101300 95
2008-09-08 07:18:34 51°13.873 2°49.091 10.2 317 14.8 101310 95
2008-09-08 07:18:39 51°13.87 2°49.081 10.2 304 14.8 101310 95
2008-09-08 07:18:44 51°13.867 2°49.07 10.2 318 14.8 101300 95
2008-09-08 07:18:50 51°13.863 2°49.058 11.3 304 14.8 101300 95
2008-09-08 07:18:54 51°13.86 2°49.05 9.7 318 14.8 101310 95
2008-09-08 07:18:59 51°13.857 2°49.04 11.5 308 14.8 101310 95
2008-09-08 07:19:04 51°13.854 2°49.029 11.7 317 14.8 101300 95
2008-09-08 07:19:10 51°13.85 2°49.017 11.1 304 14.8 101300 95
2008-09-08 07:19:14 51°13.847 2°49.008 11.2 316 14.8 101310 95
2008-09-08 07:19:19 51°13.844 2°48.999 10.3 303 14.8 101310 95
2008-09-08 07:19:24 51°13.84 2°48.989 10.6 318 14.8 101300 95
2008-09-08 07:19:30 51°13.836 2°48.976 9.8 304 14.8 101300 95
2008-09-08 07:19:34 51°13.834 2°48.969 11.9 317 14.8 101300 95
2008-09-08 07:19:39 51°13.83 2°48.958 9.1 303 14.8 101300 95
2008-09-08 07:19:44 51°13.827 2°48.948 10.6 317 14.8 101310 95
2008-09-08 07:19:50 51°13.823 2°48.936 11.5 300 14.8 101310 95
2008-09-08 07:19:54 51°13.82 2°48.928 10 322 14.8 101300 95
2008-09-08 07:19:59 51°13.817 2°48.918 11.9 309 14.8 101300 95
2008-09-08 07:20:04 51°13.814 2°48.908 12.4 319 14.8 101310 95
2008-09-08 07:20:10 51°13.81 2°48.895 11.5 307 14.8 101310 95
2008-09-08 07:20:14 51°13.807 2°48.887 9.9 320 14.8 101300 95
2008-09-08 07:20:19 51°13.804 2°48.876 12.3 322 14.8 101300 95
2008-09-08 07:20:24 51°13.801 2°48.866 11.1 322 14.8 101300 95
2008-09-08 07:20:30 51°13.796 2°48.854 10.8 304 14.8 101300 95
2008-09-08 07:20:34 51°13.794 2°48.845 11.8 324 14.8 101310 95
2008-09-08 07:20:39 51°13.791 2°48.836 11.1 324 14.8 101310 95
2008-09-08 07:20:44 51°13.788 2°48.825 11.6 321 14.8 101310 95
2008-09-08 07:20:50 51°13.783 2°48.813 9.8 308 14.8 101310 95
2008-09-08 07:20:54 51°13.781 2°48.805 10.6 320 14.8 101300 95
2008-09-08 07:20:59 51°13.777 2°48.795 9.9 283 14.8 101300 95
2008-09-08 07:21:04 51°13.774 2°48.785 10.7 323 14.8 101310 95
2008-09-08 07:21:10 51°13.77 2°48.773 11.1 302 14.8 101310 95
2008-09-08 07:21:14 51°13.767 2°48.764 11.9 319 14.7 101310 95
2008-09-08 07:21:19 51°13.764 2°48.754 10.4 307 14.7 101310 95
2008-09-08 07:21:24 51°13.761 2°48.744 10.2 318 14.8 101310 95
2008-09-08 07:21:30 51°13.757 2°48.731 10.1 304 14.8 101310 95
2008-09-08 07:21:34 51°13.754 2°48.723 8.8 318 14.8 101310 95
2008-09-08 07:21:39 51°13.751 2°48.713 9.8 303 14.8 101310 95
2008-09-08 07:21:44 51°13.747 2°48.702 11.4 315 14.8 101310 95
2008-09-08 07:21:50 51°13.743 2°48.69 10.5 306 14.8 101310 95
2008-09-08 07:21:54 51°13.741 2°48.681 11.6 317 14.8 101310 95
2008-09-08 07:21:59 51°13.737 2°48.671 9.4 308 14.8 101310 95
2008-09-08 07:22:04 51°13.734 2°48.66 9.1 317 14.9 101320 96
2008-09-08 07:22:10 51°13.73 2°48.648 10.1 303 14.9 101320 96
2008-09-08 07:22:14 51°13.728 2°48.64 11.3 321 14.8 101310 96
2008-09-08 07:22:19 51°13.724 2°48.63 10.3 305 14.8 101310 96
2008-09-08 07:22:24 51°13.721 2°48.619 11.1 318 14.9 101310 96
2008-09-08 07:22:30 51°13.717 2°48.607 10.1 302 14.9 101310 96
2008-09-08 07:22:34 51°13.714 2°48.599 11.2 318 14.8 101310 95
2008-09-08 07:22:39 51°13.711 2°48.589 9.4 309 14.8 101310 95
2008-09-08 07:22:44 51°13.707 2°48.579 8.7 317 14.8 101310 95
2008-09-08 07:22:50 51°13.704 2°48.566 9 301 14.8 101310 95
2008-09-08 07:22:54 51°13.701 2°48.558 11.3 321 14.9 101310 95
2008-09-08 07:22:59 51°13.698 2°48.547 9.8 307 14.9 101310 95
2008-09-08 07:23:04 51°13.694 2°48.537 9.3 319 14.8 101320 95
2008-09-08 07:23:10 51°13.691 2°48.525 10.7 303 14.8 101320 95
2008-09-08 07:23:14 51°13.688 2°48.516 9.8 320 14.9 101320 95
2008-09-08 07:23:19 51°13.684 2°48.506 10.1 304 14.9 101320 95
2008-09-08 07:23:24 51°13.681 2°48.496 11.5 320 14.8 101320 95
2008-09-08 07:23:29 51°13.678 2°48.485 10.1 302 14.8 101320 95
2008-09-08 07:23:34 51°13.674 2°48.475 9.8 319 14.8 101310 95
2008-09-08 07:23:39 51°13.671 2°48.464 11.7 308 14.8 101310 95
2008-09-08 07:23:44 51°13.667 2°48.454 10 320 14.8 101310 95
2008-09-08 07:23:50 51°13.663 2°48.442 11.1 307 14.8 101310 95
2008-09-08 07:23:54 51°13.66 2°48.434 10.5 317 14.8 101310 95
2008-09-08 07:23:59 51°13.657 2°48.424 11 304 14.8 101310 95
2008-09-08 07:24:04 51°13.654 2°48.413 10.8 317 14.8 101310 95
2008-09-08 07:24:10 51°13.65 2°48.401 11.4 308 14.8 101310 95
2008-09-08 07:24:14 51°13.647 2°48.393 11.9 318 14.8 101310 95
2008-09-08 07:24:19 51°13.644 2°48.382 11.3 306 14.8 101310 95
2008-09-08 07:24:24 51°13.641 2°48.372 9.7 319 14.8 101310 95
2008-09-08 07:24:30 51°13.637 2°48.359 10.6 301 14.8 101310 95
2008-09-08 07:24:34 51°13.634 2°48.351 11.5 321 14.8 101310 94
2008-09-08 07:24:39 51°13.631 2°48.341 10.8 308 14.8 101310 94
2008-09-08 07:24:45 51°13.626 2°48.329 11.8 319 14.7 101310 94
2008-09-08 07:24:50 51°13.623 2°48.319 10.8 306 14.7 101310 94
2008-09-08 07:24:54 51°13.62 2°48.311 11.3 318 14.8 101320 94
2008-09-08 07:24:59 51°13.617 2°48.3 11.8 285 14.8 101320 94
2008-09-08 07:25:04 51°13.614 2°48.29 9.4 320 14.8 101320 94
2008-09-08 07:25:10 51°13.61 2°48.277 11.9 303 14.8 101320 94
2008-09-08 07:25:14 51°13.607 2°48.269 9.5 322 14.8 101310 95
2008-09-08 07:25:19 51°13.604 2°48.259 11.9 302 14.8 101310 95
2008-09-08 07:25:24 51°13.6 2°48.249 12.4 319 14.8 101310 95
2008-09-08 07:25:30 51°13.596 2°48.236 12 322 14.8 101310 95
2008-09-08 07:25:34 51°13.593 2°48.228 12 320 14.8 101310 95
2008-09-08 07:25:39 51°13.59 2°48.218 11.1 307 14.8 101310 95
2008-09-08 07:25:44 51°13.586 2°48.207 12.3 320 14.8 101320 95
2008-09-08 07:25:50 51°13.582 2°48.195 10.6 321 14.8 101320 95
2008-09-08 07:25:54 51°13.58 2°48.186 11.7 320 14.8 101310 95
2008-09-08 07:26:00 51°13.576 2°48.174 11.3 285 14.8 101310 95
2008-09-08 07:26:04 51°13.573 2°48.166 11.2 319 14.8 101310 94
2008-09-08 07:26:10 51°13.569 2°48.153 11.1 300 14.8 101310 94
2008-09-08 07:26:14 51°13.567 2°48.145 12 319 14.8 101310 94
2008-09-08 07:26:19 51°13.563 2°48.135 10.5 305 14.8 101310 94
2008-09-08 07:26:24 51°13.56 2°48.125 11.7 319 14.8 101310 94
2008-09-08 07:26:30 51°13.556 2°48.112 10.1 302 14.8 101310 94
2008-09-08 07:26:34 51°13.554 2°48.104 10.7 318 14.8 101310 94
2008-09-08 07:26:39 51°13.551 2°48.094 11.6 304 14.8 101310 94
2008-09-08 07:26:45 51°13.546 2°48.082 10.3 320 14.8 101300 94
2008-09-08 07:26:50 51°13.543 2°48.072 11.4 305 14.8 101300 94
2008-09-08 07:26:54 51°13.541 2°48.063 11 322 14.8 101300 94
2008-09-08 07:26:59 51°13.538 2°48.053 9.6 310 14.8 101300 94
2008-09-08 07:27:04 51°13.534 2°48.043 10.4 318 14.7 101310 94
2008-09-08 07:27:10 51°13.53 2°48.031 10.4 306 14.7 101310 94
2008-09-08 07:27:14 51°13.528 2°48.023 11.4 321 14.7 101310 94
2008-09-08 07:27:19 51°13.524 2°48.013 9.3 307 14.7 101310 94
2008-09-08 07:27:24 51°13.521 2°48.003 11 321 14.8 101310 94
2008-09-08 07:27:30 51°13.516 2°47.991 10 304 14.8 101310 94
2008-09-08 07:27:34 51°13.513 2°47.983 9.6 321 14.8 101320 94
2008-09-08 07:27:39 51°13.51 2°47.973 9.2 308 14.8 101320 94
2008-09-08 07:27:44 51°13.506 2°47.963 11.2 319 14.8 101300 94
2008-09-08 07:27:50 51°13.502 2°47.951 12.4 307 14.8 101300 94
2008-09-08 07:27:54 51°13.5 2°47.943 9.9 321 14.8 101310 94
2008-09-08 07:27:59 51°13.496 2°47.933 10.6 286 14.8 101310 94
2008-09-08 07:28:04 51°13.493 2°47.923 10.1 317 14.7 101300 94
2008-09-08 07:28:10 51°13.488 2°47.911 9.3 309 14.7 101300 94
2008-09-08 07:28:14 51°13.486 2°47.903 9.6 319 14.7 101310 94
2008-09-08 07:28:19 51°13.482 2°47.893 10.9 309 14.7 101310 94
2008-09-08 07:28:24 51°13.479 2°47.882 11.4 319 14.8 101310 94
2008-09-08 07:28:30 51°13.475 2°47.87 11.4 305 14.8 101310 94
2008-09-08 07:28:34 51°13.472 2°47.862 11.2 320 14.8 101310 94
2008-09-08 07:28:39 51°13.469 2°47.852 9.6 304 14.8 101310 94
2008-09-08 07:28:45 51°13.464 2°47.84 9.5 320 14.8 101310 94
2008-09-08 07:28:50 51°13.462 2°47.829 9.1 302 14.8 101310 94
2008-09-08 07:28:54 51°13.459 2°47.82 9.4 318 14.8 101310 94
2008-09-08 07:28:59 51°13.457 2°47.81 9.9 280 14.8 101310 94
2008-09-08 07:29:04 51°13.455 2°47.799 9 22 14.8 101320 94
2008-09-08 07:29:10 51°13.452 2°47.785 8.8 304 14.8 101320 94
2008-09-08 07:29:14 51°13.451 2°47.776 10.1 316 14.8 101310 94
2008-09-08 07:29:19 51°13.449 2°47.765 9.8 306 14.8 101310 94
2008-09-08 07:29:25 51°13.448 2°47.751 9 25 14.8 101310 94
2008-09-08 07:29:30 51°13.447 2°47.74 9.3 307 14.8 101310 94
2008-09-08 07:29:34 51°13.447 2°47.73 10.5 21 14.8 101310 95
2008-09-08 07:29:39 51°13.446 2°47.719 9 305 14.8 101310 95
2008-09-08 07:29:44 51°13.447 2°47.707 9.8 20 14.8 101310 94
2008-09-08 07:29:50 51°13.448 2°47.693 8.3 308 14.8 101310 94
2008-09-08 07:29:54 51°13.449 2°47.684 8.2 22 14.8 101290 94
2008-09-08 07:29:59 51°13.451 2°47.672 8 302 14.8 101290 94
2008-09-08 07:30:04 51°13.453 2°47.66 9 23 14.8 101310 94
2008-09-08 07:30:10 51°13.456 2°47.646 9 304 14.8 101310 94
2008-09-08 07:30:14 51°13.458 2°47.637 8.6 27 14.8 101300 94
2008-09-08 07:30:19 51°13.461 2°47.626 8.1 305 14.8 101300 94
2008-09-08 07:30:24 51°13.464 2°47.615 7.6 25 14.9 101310 94
2008-09-08 07:30:30 51°13.468 2°47.602 8.9 302 14.9 101310 94
2008-09-08 07:30:34 51°13.472 2°47.593 9 247 14.9 101310 95
2008-09-08 07:30:39 51°13.476 2°47.583 8.4 308 14.9 101310 95
2008-09-08 07:30:45 51°13.482 2°47.572 8.2 248 14.9 101300 95
2008-09-08 07:30:50 51°13.486 2°47.562 9.5 303 14.9 101300 95
2008-09-08 07:30:54 51°13.491 2°47.554 9.3 251 14.9 101310 95
2008-09-08 07:31:00 51°13.497 2°47.543 7.9 281 14.9 101310 95
2008-09-08 07:31:04 51°13.501 2°47.535 9.5 251 14.9 101320 94
2008-09-08 07:31:10 51°13.508 2°47.524 8.2 307 14.9 101320 94
2008-09-08 07:31:14 51°13.512 2°47.517 9.6 22 14.8 101310 94
2008-09-08 07:31:19 51°13.518 2°47.508 8.3 310 14.8 101310 94
2008-09-08 07:31:24 51°13.524 2°47.499 9.1 249 14.9 101320 94
2008-09-08 07:31:30 51°13.531 2°47.488 7.8 302 14.9 101320 94
2008-09-08 07:31:34 51°13.536 2°47.481 9.8 251 14.9 101310 94
2008-09-08 07:31:39 51°13.542 2°47.472 9.5 303 14.9 101310 94
2008-09-08 07:31:45 51°13.549 2°47.461 7.9 252 14.9 101310 94
2008-09-08 07:31:50 51°13.555 2°47.452 7.4 302 14.9 101310 94
2008-09-08 07:31:54 51°13.56 2°47.445 8.5 250 14.8 101310 94
2008-09-08 07:31:59 51°13.566 2°47.436 7.6 306 14.8 101310 94
2008-09-08 07:32:04 51°13.572 2°47.427 7.5 249 14.8 101310 94
2008-09-08 07:32:10 51°13.579 2°47.415 8.1 301 14.8 101310 94
2008-09-08 07:32:14 51°13.584 2°47.408 7.2 250 14.8 101320 94
2008-09-08 07:32:19 51°13.59 2°47.398 8.3 301 14.8 101320 94
2008-09-08 07:32:24 51°13.596 2°47.389 7.3 249 14.8 101320 94
2008-09-08 07:32:30 51°13.603 2°47.378 8.8 303 14.8 101320 94
2008-09-08 07:32:34 51°13.608 2°47.37 8.7 21 14.8 101310 94
2008-09-08 07:32:39 51°13.614 2°47.361 7.5 306 14.8 101310 94
2008-09-08 07:32:44 51°13.62 2°47.351 9.3 248 14.8 101320 94
2008-09-08 07:32:50 51°13.626 2°47.34 9.5 300 14.8 101320 94
2008-09-08 07:32:54 51°13.631 2°47.332 7.2 248 14.8 101320 94
2008-09-08 07:33:00 51°13.638 2°47.321 8.7 281 14.8 101320 94
2008-09-08 07:33:04 51°13.643 2°47.313 7.9 251 14.9 101320 94
2008-09-08 07:33:10 51°13.649 2°47.302 7.7 304 14.9 101320 94
2008-09-08 07:33:14 51°13.654 2°47.294 7.4 254 14.8 101320 94
2008-09-08 07:33:19 51°13.66 2°47.284 7.4 301 14.8 101320 94
2008-09-08 07:33:24 51°13.666 2°47.275 8.8 251 14.9 101310 94
2008-09-08 07:33:30 51°13.673 2°47.263 6.7 302 14.9 101310 94
2008-09-08 07:33:34 51°13.677 2°47.256 7.3 248 14.9 101320 94
2008-09-08 07:33:39 51°13.683 2°47.246 7.7 302 14.9 101320 94
2008-09-08 07:33:45 51°13.69 2°47.235 8.8 246 14.8 101320 94
2008-09-08 07:33:50 51°13.696 2°47.225 9.4 305 14.8 101320 94
2008-09-08 07:33:54 51°13.7 2°47.217 7.5 251 14.8 101320 94
2008-09-08 07:33:59 51°13.706 2°47.208 8.6 302 14.8 101320 94
2008-09-08 07:34:04 51°13.712 2°47.198 8.1 252 14.9 101310 94
2008-09-08 07:34:10 51°13.719 2°47.186 7.5 303 14.9 101310 94
2008-09-08 07:34:14 51°13.723 2°47.178 6.5 251 14.9 101320 94
2008-09-08 07:34:19 51°13.729 2°47.169 8.1 305 14.9 101320 94
2008-09-08 07:34:24 51°13.734 2°47.159 9 249 14.9 101310 94
2008-09-08 07:34:30 51°13.741 2°47.147 7.5 303 14.9 101310 94
2008-09-08 07:34:34 51°13.746 2°47.139 7.8 253 14.9 101320 94
2008-09-08 07:34:39 51°13.752 2°47.129 8.8 303 14.9 101320 94
2008-09-08 07:34:44 51°13.757 2°47.119 8.2 20 14.9 101310 95
2008-09-08 07:34:50 51°13.764 2°47.108 8.6 306 14.9 101310 95
2008-09-08 07:34:54 51°13.768 2°47.1 8.9 248 14.9 101320 95
2008-09-08 07:35:00 51°13.775 2°47.088 10.5 278 14.9 101320 95
2008-09-08 07:35:04 51°13.78 2°47.08 9.5 248 14.9 101320 94
2008-09-08 07:35:10 51°13.787 2°47.069 9.2 304 14.9 101320 94
2008-09-08 07:35:15 51°13.794 2°47.061 8.7 251 14.9 101310 94
2008-09-08 07:35:19 51°13.799 2°47.054 9.4 303 14.9 101310 94
2008-09-08 07:35:24 51°13.806 2°47.046 9.7 255 14.9 101310 94
2008-09-08 07:35:30 51°13.814 2°47.037 9.1 309 14.9 101310 94
2008-09-08 07:35:34 51°13.82 2°47.031 8.8 253 14.9 101320 94
2008-09-08 07:35:40 51°13.828 2°47.022 9 304 14.9 101320 94
2008-09-08 07:35:44 51°13.834 2°47.016 8.7 253 14.9 101320 94
2008-09-08 07:35:50 51°13.843 2°47.008 9.6 306 14.9 101320 94
2008-09-08 07:35:54 51°13.849 2°47.004 7.7 260 14.9 101320 94
2008-09-08 07:35:59 51°13.857 2°46.998 9.6 306 14.9 101320 94
2008-09-08 07:36:04 51°13.864 2°46.992 8.3 258 14.9 101320 94
2008-09-08 07:36:10 51°13.874 2°46.986 8 309 14.9 101320 94
2008-09-08 07:36:14 51°13.88 2°46.982 8.1 262 14.9 101320 94
2008-09-08 07:36:19 51°13.888 2°46.977 6.6 306 14.9 101320 94
2008-09-08 07:36:24 51°13.896 2°46.973 6.2 264 15 101320 94
2008-09-08 07:36:30 51°13.906 2°46.967 5.2 308 15 101320 94
2008-09-08 07:36:34 51°13.912 2°46.964 5.4 264 15 101320 94
2008-09-08 07:36:39 51°13.92 2°46.959 4.1 303 15 101320 94
2008-09-08 07:36:44 51°13.929 2°46.955 5.4 264 14.9 101320 94
2008-09-08 07:36:50 51°13.938 2°46.95 6.9 304 14.9 101320 94
2008-09-08 07:36:54 51°13.945 2°46.946 7.4 261 14.9 101330 94
2008-09-08 07:36:59 51°13.953 2°46.942 7 279 14.9 101330 94
2008-09-08 07:37:04 51°13.96 2°46.938 7.2 261 14.9 101320 94
2008-09-08 07:37:10 51°13.97 2°46.932 7 304 14.9 101320 94
2008-09-08 07:37:14 51°13.976 2°46.929 5.5 264 14.9 101320 94
2008-09-08 07:37:19 51°13.984 2°46.924 4.9 304 14.9 101320 94
2008-09-08 07:37:24 51°13.992 2°46.92 5.4 262 14.9 101330 94
2008-09-08 07:37:30 51°14.001 2°46.914 5.1 308 14.9 101330 94
2008-09-08 07:37:34 51°14.008 2°46.911 5.7 266 15 101330 94
2008-09-08 07:37:40 51°14.017 2°46.905 5.2 303 15 101330 94
2008-09-08 07:37:44 51°14.024 2°46.902 5.4 263 15 101320 94
2008-09-08 07:37:50 51°14.033 2°46.896 5.3 303 15 101320 94
2008-09-08 07:37:54 51°14.039 2°46.892 5.5 265 15 101320 94
2008-09-08 07:37:59 51°14.047 2°46.887 5.1 304 15 101320 94
2008-09-08 07:38:04 51°14.055 2°46.883 5.4 265 15 101320 94
2008-09-08 07:38:10 51°14.065 2°46.877 7 304 15 101320 94
2008-09-08 07:38:14 51°14.071 2°46.873 7.9 257 15 101330 94
2008-09-08 07:38:19 51°14.079 2°46.868 7.6 308 15 101330 94
2008-09-08 07:38:25 51°14.088 2°46.863 7.3 260 15 101330 94
2008-09-08 07:38:30 51°14.096 2°46.858 8.8 307 15 101330 94
2008-09-08 07:38:34 51°14.102 2°46.855 7 259 15 101330 94
2008-09-08 07:38:39 51°14.11 2°46.85 6.4 305 15 101330 94
2008-09-08 07:38:44 51°14.118 2°46.846 7 262 15 101320 94
2008-09-08 07:38:50 51°14.127 2°46.84 5.8 305 15 101320 94
2008-09-08 07:38:54 51°14.134 2°46.837 4.8 263 15 101330 94
2008-09-08 07:38:59 51°14.142 2°46.832 6.5 285 15 101330 94
2008-09-08 07:39:04 51°14.149 2°46.828 5.1 262 15 101320 94
2008-09-08 07:39:09 51°14.157 2°46.823 4.4 300 15 101320 94
2008-09-08 07:39:14 51°14.165 2°46.818 3.9 264 15 101320 94
2008-09-08 07:39:19 51°14.173 2°46.813 6.5 307 15 101320 94
2008-09-08 07:39:24 51°14.181 2°46.808 7.5 263 15 101320 93
2008-09-08 07:39:30 51°14.19 2°46.803 7.1 307 15 101320 93
2008-09-08 07:39:34 51°14.197 2°46.8 6 263 15 101330 93
2008-09-08 07:39:39 51°14.205 2°46.796 6.3 305 15 101330 93
2008-09-08 07:39:44 51°14.212 2°46.791 7.9 261 15 101320 93
2008-09-08 07:39:50 51°14.222 2°46.786 6.4 303 15 101320 93
2008-09-08 07:39:54 51°14.228 2°46.782 6.6 262 15 101310 94
2008-09-08 07:39:59 51°14.236 2°46.777 5.8 307 15 101310 94
2008-09-08 07:40:04 51°14.244 2°46.772 5.8 261 15 101320 93
2008-09-08 07:40:10 51°14.253 2°46.766 7 303 15 101320 93
2008-09-08 07:40:14 51°14.26 2°46.763 6.6 262 15 101320 93
2008-09-08 07:40:19 51°14.268 2°46.757 6.6 308 15 101320 93
2008-09-08 07:40:25 51°14.277 2°46.752 6 262 15 101320 93
2008-09-08 07:40:30 51°14.285 2°46.746 6.5 307 15 101320 93
2008-09-08 07:40:34 51°14.291 2°46.742 5.9 263 15 101320 93
2008-09-08 07:40:39 51°14.299 2°46.738 6 309 15 101320 93
2008-09-08 07:40:44 51°14.307 2°46.733 5.6 259 15 101320 93
2008-09-08 07:40:50 51°14.316 2°46.727 5.4 301 15 101320 93